User: anonymous   Login
Location: State Camp
(41.2367°N, 77.7828°W)
Time: 09:31:51
(UTC-04:00)
Language:

ADEOS Rocket - Orbit

View from above orbital plane
View from above orbital plane
View from above satellite
View from above satellite

Ground track
Ground track

The orbit data is extracted from the following two-line orbital elements,

1 24279U 96046C   17117.87633852 +.00000007 +00000-0 +51537-4 0  9990
2 24279 098.7490 068.0597 0301063 057.0376 005.1028 13.47082590017473
Epoch (UTC): 27 April 2017 21:01:55
Eccentricity: 0.0301063
inclination: 98.7490°
perigee height: 858 km
apogee height: 1307 km
right ascension of ascending node: 68.0597°
argument of perigee: 57.0376°
revolutions per day: 13.47082590
mean anomaly at epoch: 5.1028°
orbit number at epoch: 1747

The dashed part of the orbit path shows where the satellite is in the earth's shadow,  

DLR